Location: Ay?beleni
(36.6500°N, 30.3000°E)
Time: 02:08:47
(UTC+00:00)

Cosmos 2322 Rocket - Pass Details

Date: 16 October 2021
Orbit: 832 x 851 km, 71.0° (Epoch: 04 December)

Event Time Altitude Azimuth Distance (km) Brightness Sun altitude
Rises 16:35:44 0° 164° (SSE) 3,362 5.2 -15.7°
Reaches altitude 10° 16:38:39 10° 150° (SSE) 2,431 4.3 -16.3°
Enters shadow 16:40:39 18° 131° (SE) 1,955 3.7 -16.7°
